This demonstration page uses our WeatherBlox Daily Observations layout. Learn more.

Left ArrowRight Arrow

47.50024, -111.30081

Hourly Observations for January 1, 2018

Temp ( °F °C ) Dew Point ( °F °C ) Humidity (%) Winds ( mph kmh ) Pressure ( in mb ) Visibility ( mi km ) Precip ( " mm )
12:53 am 00:53 Clear -21 -29.4 -27 -32.8 72 72 WSW 3 6 30.66 1038 10 16 0.00 0.00
1:53 am 01:53 Clear -23 -30.6 -30 -34.4 69 69 W 3 6 30.67 1039 10 16 0.00 0.00
2:53 am 02:53 Clear -22 -30 -27 -32.8 76 76 Calm 30.68 1039 10 16 0.00 0.00
3:53 am 03:53 Clear -22 -30 -27 -32.8 76 76 NW 3 6 30.69 1039 10 16 0.00 0.00
4:53 am 04:53 Clear -25 -31.7 -31 -35 72 72 NNW 5 7 30.72 1040 10 16 0.00 0.00
5:53 am 05:53 Clear -26 -32.2 -33 -36.1 68 68 W 3 6 30.76 1042 10 16 0.00 0.00
6:53 am 06:53 Clear -25 -31.7 -32 -35.6 68 68 W 9 15 30.76 1042 10 16 0.00 0.00
7:53 am 07:53 Clear -22 -30 -29 -33.9 69 69 WSW 10 17 30.76 1042 10 16 0.00 0.00
8:53 am 08:53 Mostly Cloudy -19 -28.3 -25 -31.7 73 73 SW 8 13 30.77 1042 10 16 0.00 0.00
9:53 am 09:53 Cloudy -15 -26.1 -22 -30 70 70 SW 10 17 30.76 1042 10 16 0.00 0.00
10:53 am 10:53 Cloudy -9 -22.8 -18 -27.8 64 64 SW 12 19 30.76 1042 10 16 0.00 0.00
11:53 am 11:53 Mostly Sunny -7 -21.7 -15 -26.1 68 68 SW 10 17 30.73 1041 10 16 0.00 0.00
12:53 pm 12:53 Sunny -10 -23.3 -18 -27.8 67 67 WSW 6 9 30.73 1041 10 16 0.00 0.00
1:53 pm 13:53 Sunny -10 -23.3 -18 -27.8 67 67 W 6 9 30.72 1040 10 16 0.00 0.00
2:53 pm 14:53 Sunny -9 -22.8 -17 -27.2 67 67 WSW 6 9 30.71 1040 10 16 0.00 0.00
3:53 pm 15:53 Sunny -11 -23.9 -18 -27.8 70 70 WSW 7 11 30.71 1040 10 16 0.00 0.00
4:53 pm 16:53 Clear -10 -23.3 -16 -26.7 74 74 SSW 14 22 30.70 1040 10 16 0.00 0.00
5:53 pm 17:53 Clear -14 -25.6 -20 -28.9 74 74 SW 8 13 30.71 1040 10 16 0.00 0.00
6:53 pm 18:53 Clear -11 -23.9 -17 -27.2 74 74 SW 12 19 30.70 1040 10 16 0.00 0.00
7:53 pm 19:53 Clear -2 -18.9 -7 -21.7 79 79 SSW 15 24 30.65 1038 10 16 0.00 0.00
8:53 pm 20:53 Clear 7 -13.9 1 -17.2 76 76 SSW 18 30 30.60 1036 10 16 0.00 0.00
9:53 pm 21:53 Clear 7 -13.9 0 -17.8 73 73 SSW 16 26 30.58 1036 10 16 0.00 0.00
10:53 pm 22:53 Clear 9 -12.8 1 -17.2 70 70 SW 15 24 30.57 1035 10 16 0.00 0.00
11:53 pm 23:53 Clear 8 -13.3 1 -17.2 73 73 SW 16 26 30.58 1036 10 16 0.00 0.00

Powered by AerisWeather